Regional Weather Roundup
Issued by NWS

Home | Current Version | Previous Version | Graphics & Text | Print | Product List | Glossary On
Versions: 1 2 3 4 5 6 7 8 9 10 11 12 13 14 15 16 17 18 19 20 21 22 23 24 25 26 27 28
000
ASUS45 KCYS 281210
RWRWY

WYOMING REGIONAL WEATHER ROUNDUP
NATIONAL WEATHER SERVICE CHEYENNE WY
600 AM MDT THU APR 28 2016

NOTE:  "FAIR" INDICATES FEW OR NO CLOUDS BELOW 12,000 FEET
WITH NO SIGNIFICANT WEATHER AND/OR OBSTRUCTIONS TO VISIBILITY.

WYZ001-281300-
YELLOWSTONE NATIONAL PARK

CITY           SKY/WX    TMP DP  RH WIND       PRES   REMARKS
LK YELLOWSTONE   N/A     28  21  75 CALM      29.89R
6HR MIN TEMP:  28; 6HR MAX TEMP:  31;

W YELLOWSTONE  NOT AVBL

$$
WYZ002>013-054>058-071-098>099-281300-
NORTHERN WYOMING

CITY           SKY/WX    TMP DP  RH WIND       PRES   REMARKS
JACKSON        CLOUDY    34  28  80 N8        29.83S WCI  27
CODY           CLOUDY    28  27  93 N6        29.97R WCI  22
GREYBULL       FLURRIES  34  30  85 N13       29.96S WCI  25
6HR MIN TEMP:  34; 6HR MAX TEMP:  38; 6HR PCP: TRACE;

WORLAND        CLOUDY    34  31  88 NW6       29.97S WCI  29
6HR MIN TEMP:  34; 6HR MAX TEMP:  35; 6HR PCP:  0.01;

SHERIDAN       LGT SNOW  32  31  96 NE5       30.02R FOG     WCI  27
6HR MIN TEMP:  32; 6HR MAX TEMP:  33; 6HR PCP:  0.04;

BUFFALO        CLOUDY    29  27  92 NE6       29.98S WCI  23
6HR MIN TEMP:  29; 6HR MAX TEMP:  31; 6HR PCP: TRACE;

GILLETTE       CLOUDY    30  29  96 NE7       29.99R WCI  23
6HR MIN TEMP:  29; 6HR MAX TEMP:  30; 6HR PCP:  0.03;

HULETT         LGT SNOW  32  32 100 N3        30.00R
NEWCASTLE      CLOUDY    32  28  86 NW8       29.97R WCI  25

$$
WYZ014>020-022>026-101>103-281300-
CENTRAL WYOMING

CITY           SKY/WX    TMP DP  RH WIND       PRES   REMARKS
BIG PINEY      CLOUDY    31  27  85 SW6       29.85F WCI  25
6HR MIN TEMP:  31; 6HR MAX TEMP:  33;

PINEDALE       PTSUNNY   32  30  93 NW5       29.85S WCI  27
DUBOIS         LGT SNOW  28  27  93 SE9       29.87S WCI  20
LANDER         CLOUDY    32  31  96 NE6       29.91S FOG     WCI  26
6HR MIN TEMP:  32; 6HR MAX TEMP:  35; 6HR PCP:  0.01;

RIVERTON       CLOUDY    33  28  81 E8        29.93R WCI  26
6HR MIN TEMP:  33; 6HR MAX TEMP:  36;

CASPER         CLOUDY    30  27  88 NE7       29.94S WCI  23
6HR MIN TEMP:  30; 6HR MAX TEMP:  32; 6HR PCP: TRACE;

DOUGLAS        CLOUDY    32  29  88 NW9       29.96S WCI  24
6HR MIN TEMP:  32; 6HR MAX TEMP:  33; 6HR PCP: TRACE;


$$
WYZ021-027>030-104>119-281300-
SOUTHERN WYOMING

CITY           SKY/WX    TMP DP  RH WIND       PRES   REMARKS
EVANSTON       CLOUDY    32  26  78 E21G26    29.76R WCI  20
6HR MIN TEMP:  32; 6HR MAX TEMP:  37;

FORT BRIDGER   CLOUDY    32  32 100 E15G21    29.83S WCI  22
ROCK SPRINGS   FAIR      30  25  81 E17       29.84S WCI  18
6HR MIN TEMP:  30; 6HR MAX TEMP:  34;

DIXON          FAIR      33  26  75 NE9       29.82S WCI  25
RAWLINS        FAIR      26  22  84 NE7       29.88S WCI  18
6HR MIN TEMP:  25; 6HR MAX TEMP:  30;

SARATOGA       CLOUDY    30  28  93 W8        29.87S WCI  23
LARAMIE        CLOUDY    27  23  85 NE7       29.88S WCI  19
6HR MIN TEMP:  24; 6HR MAX TEMP:  27;

CHEYENNE       CLOUDY    30  26  85 N3        29.91S
6HR MIN TEMP:  29; 6HR MAX TEMP:  31;

TORRINGTON     MOCLDY    30  27  88 N8        29.95R WCI  22
6HR MIN TEMP:  28; 6HR MAX TEMP:  37;

PINE BLUFFS    CLOUDY    32  30  93 N9        29.94F WCI  24

$$




USA.gov is the U.S. government's official web portal to all federal, state and local government web resources and services.